Year,Month,Day,Hour,Minute,Value (Times are PST for temperature in C)
2012,08,07,07,12,14.10
2012,08,07,07,13,14.10
2012,08,07,07,14,14.20
2012,08,07,07,15,14.20
2012,08,07,07,16,14.30
2012,08,07,07,17,14.30
2012,08,07,07,18,14.30
2012,08,07,07,19,14.30
2012,08,07,07,20,14.40
2012,08,07,07,21,14.40
2012,08,07,07,22,14.40
2012,08,07,07,23,14.50
2012,08,07,07,24,14.50
2012,08,07,07,25,14.60
2012,08,07,07,26,14.60
2012,08,07,07,27,14.70
2012,08,07,07,28,14.80
2012,08,07,07,29,14.80
2012,08,07,07,30,14.90
2012,08,07,07,31,14.90
2012,08,07,07,32,14.90
2012,08,07,07,33,14.90
2012,08,07,07,34,14.90
2012,08,07,07,35,15.00
2012,08,07,07,36,15.00
2012,08,07,07,37,15.00
2012,08,07,07,38,15.10
2012,08,07,07,39,15.10
2012,08,07,07,40,15.10
2012,08,07,07,41,15.10
2012,08,07,07,42,15.10
2012,08,07,07,43,15.20
2012,08,07,07,44,15.20
2012,08,07,07,45,15.30
2012,08,07,07,46,15.30
2012,08,07,07,47,15.40
2012,08,07,07,48,15.40
2012,08,07,07,49,15.50
2012,08,07,07,50,15.50
2012,08,07,07,51,15.60
2012,08,07,07,52,15.60
2012,08,07,07,53,15.60
2012,08,07,07,54,15.70
2012,08,07,07,55,15.70
2012,08,07,07,56,15.70
2012,08,07,07,57,15.70
2012,08,07,07,58,15.70
2012,08,07,07,59,15.70
2012,08,07,08,00,15.70
2012,08,07,08,01,15.80
2012,08,07,08,02,15.80
2012,08,07,08,03,15.80
2012,08,07,08,04,15.80
2012,08,07,08,05,15.80
2012,08,07,08,06,15.90
2012,08,07,08,07,15.90
2012,08,07,08,08,15.90
2012,08,07,08,09,16.00
2012,08,07,08,10,16.00
2012,08,07,08,11,16.10
2012,08,07,08,12,16.10
2012,08,07,08,13,16.20
2012,08,07,08,14,16.20
2012,08,07,08,15,16.20
2012,08,07,08,16,16.20
2012,08,07,08,17,16.20
2012,08,07,08,18,16.20
2012,08,07,08,19,16.20
2012,08,07,08,20,16.30
2012,08,07,08,21,16.30
2012,08,07,08,22,16.30
2012,08,07,08,23,16.30
2012,08,07,08,24,16.30
2012,08,07,08,25,16.40
2012,08,07,08,26,16.40
2012,08,07,08,27,16.40
2012,08,07,08,28,16.40
2012,08,07,08,29,16.40
2012,08,07,08,30,16.40
2012,08,07,08,31,16.40
2012,08,07,08,32,16.40
2012,08,07,08,33,16.40
2012,08,07,08,34,16.50
2012,08,07,08,35,16.50
2012,08,07,08,36,16.60
2012,08,07,08,37,16.60
2012,08,07,08,38,16.70
2012,08,07,08,39,16.70
2012,08,07,08,40,16.80
2012,08,07,08,41,16.80
2012,08,07,08,42,16.80
2012,08,07,08,43,16.80
2012,08,07,08,44,16.70
2012,08,07,08,45,16.70
2012,08,07,08,46,16.70
2012,08,07,08,47,16.70
2012,08,07,08,48,16.70
2012,08,07,08,49,16.70
2012,08,07,08,50,16.70
2012,08,07,08,51,16.70
2012,08,07,08,52,16.70
2012,08,07,08,53,16.70
2012,08,07,08,54,16.70
2012,08,07,08,55,16.70
2012,08,07,08,56,16.70
2012,08,07,08,57,16.80
2012,08,07,08,58,16.80
2012,08,07,08,59,16.80
2012,08,07,09,00,16.80
2012,08,07,09,01,16.80
2012,08,07,09,02,16.80
2012,08,07,09,03,16.80
2012,08,07,09,04,16.80
2012,08,07,09,05,16.90
2012,08,07,09,06,16.90
2012,08,07,09,07,16.90
2012,08,07,09,08,16.90
2012,08,07,09,09,16.90
2012,08,07,09,10,17.00
2012,08,07,09,11,17.10
2012,08,07,09,12,17.10
2012,08,07,09,13,17.10
2012,08,07,09,14,17.20
2012,08,07,09,15,17.20
2012,08,07,09,16,17.30
2012,08,07,09,17,17.30
2012,08,07,09,18,17.30
2012,08,07,09,19,17.40
2012,08,07,09,20,17.40
2012,08,07,09,21,17.50
2012,08,07,09,22,17.50
2012,08,07,09,23,17.60
2012,08,07,09,24,17.70
2012,08,07,09,25,17.70
2012,08,07,09,26,17.70
2012,08,07,09,27,17.70
2012,08,07,09,28,17.70
2012,08,07,09,29,17.80
2012,08,07,09,30,17.80
2012,08,07,09,31,17.80
2012,08,07,09,32,17.90
2012,08,07,09,33,17.90
2012,08,07,09,34,17.90
2012,08,07,09,35,17.90
2012,08,07,09,36,17.90
2012,08,07,09,37,17.90
2012,08,07,09,38,18.00
2012,08,07,09,39,18.00
2012,08,07,09,40,18.00
2012,08,07,09,41,18.00
2012,08,07,09,42,18.10
2012,08,07,09,43,18.10
2012,08,07,09,44,18.10
2012,08,07,09,45,18.10
2012,08,07,09,46,18.10
2012,08,07,09,47,18.20
2012,08,07,09,48,18.20
2012,08,07,09,49,18.30
2012,08,07,09,50,18.30
2012,08,07,09,51,18.30
2012,08,07,09,52,18.30
2012,08,07,09,53,18.40
2012,08,07,09,54,18.50
2012,08,07,09,55,18.50
2012,08,07,09,56,18.60
2012,08,07,09,57,18.60
2012,08,07,09,58,18.70
2012,08,07,09,59,18.80
2012,08,07,10,00,18.90
2012,08,07,10,01,19.00
2012,08,07,10,02,19.10
2012,08,07,10,03,19.20
2012,08,07,10,04,19.30
2012,08,07,10,05,19.40
2012,08,07,10,06,19.50
2012,08,07,10,07,19.60
2012,08,07,10,08,19.60
2012,08,07,10,09,19.60
2012,08,07,10,10,19.50
2012,08,07,10,11,19.40
2012,08,07,10,12,19.40
2012,08,07,10,13,19.30
2012,08,07,10,14,19.30
2012,08,07,10,15,19.30
2012,08,07,10,16,19.30
2012,08,07,10,17,19.30
2012,08,07,10,18,19.20
2012,08,07,10,19,19.20
2012,08,07,10,20,19.30
2012,08,07,10,21,19.30
2012,08,07,10,22,19.30
2012,08,07,10,23,19.20
2012,08,07,10,24,19.20
2012,08,07,10,25,19.20
2012,08,07,10,26,19.20
2012,08,07,10,27,19.20
2012,08,07,10,28,19.10
2012,08,07,10,29,19.10
2012,08,07,10,30,19.10
2012,08,07,10,31,19.20
2012,08,07,10,32,19.20
2012,08,07,10,33,19.30
2012,08,07,10,34,19.30
2012,08,07,10,35,19.40
2012,08,07,10,36,19.50
2012,08,07,10,37,19.60
2012,08,07,10,38,19.60
2012,08,07,10,39,19.70
2012,08,07,10,40,19.80
2012,08,07,10,41,19.90
2012,08,07,10,42,20.00
2012,08,07,10,43,20.10
2012,08,07,10,44,20.10
2012,08,07,10,45,20.20
2012,08,07,10,46,20.30
2012,08,07,10,47,20.30
2012,08,07,10,48,20.30
2012,08,07,10,49,20.30
2012,08,07,10,50,20.30
2012,08,07,10,51,20.30
2012,08,07,10,52,20.30
2012,08,07,10,53,20.30
2012,08,07,10,54,20.30
2012,08,07,10,55,20.30
2012,08,07,10,56,20.30
2012,08,07,10,57,20.20
2012,08,07,10,58,20.20
2012,08,07,10,59,20.10
2012,08,07,11,00,20.00
2012,08,07,11,01,20.00
2012,08,07,11,02,19.90
2012,08,07,11,03,19.90
2012,08,07,11,04,19.80
2012,08,07,11,05,19.80
2012,08,07,11,06,19.80
2012,08,07,11,07,19.80
2012,08,07,11,08,19.80
2012,08,07,11,09,19.80
2012,08,07,11,10,19.80
2012,08,07,11,11,19.80
2012,08,07,11,12,19.80
2012,08,07,11,13,19.80
2012,08,07,11,14,19.90
2012,08,07,11,15,19.90
2012,08,07,11,16,19.90
2012,08,07,11,17,19.80
2012,08,07,11,18,19.80
2012,08,07,11,19,19.80
2012,08,07,11,20,19.80
2012,08,07,11,21,19.80
2012,08,07,11,22,19.80
2012,08,07,11,23,19.80
2012,08,07,11,24,19.70
2012,08,07,11,25,19.70
2012,08,07,11,26,19.70
2012,08,07,11,27,19.60
2012,08,07,11,28,19.60
2012,08,07,11,29,19.50
2012,08,07,11,30,19.50
2012,08,07,11,31,19.40
2012,08,07,11,32,19.40
2012,08,07,11,33,19.40
2012,08,07,11,34,19.40
2012,08,07,11,35,19.40
2012,08,07,11,36,19.40
2012,08,07,11,37,19.40
2012,08,07,11,38,19.40
2012,08,07,11,39,19.40
2012,08,07,11,40,19.40
2012,08,07,11,41,19.40
2012,08,07,11,42,19.40
2012,08,07,11,43,19.40
2012,08,07,11,44,19.40
2012,08,07,11,45,19.40
2012,08,07,11,46,19.40
2012,08,07,11,47,19.40
2012,08,07,11,48,19.40
2012,08,07,11,49,19.30
2012,08,07,11,50,19.30
2012,08,07,11,51,19.30
2012,08,07,11,52,19.40
2012,08,07,11,53,19.50
2012,08,07,11,54,19.50
2012,08,07,11,55,19.60
2012,08,07,11,56,19.60
2012,08,07,11,57,19.60
2012,08,07,11,58,19.60
2012,08,07,11,59,19.70
2012,08,07,12,00,19.70
2012,08,07,12,01,19.70
2012,08,07,12,02,19.70
2012,08,07,12,03,19.70
2012,08,07,12,04,19.70
2012,08,07,12,05,19.70
2012,08,07,12,06,19.70
2012,08,07,12,07,19.60
2012,08,07,12,08,19.60
2012,08,07,12,09,19.60
2012,08,07,12,10,19.60
2012,08,07,12,11,19.70
2012,08,07,12,12,19.80
2012,08,07,12,13,19.90
2012,08,07,12,14,20.00
2012,08,07,12,15,20.00
2012,08,07,12,16,20.00
2012,08,07,12,17,20.00
2012,08,07,12,18,20.10
2012,08,07,12,19,20.10
2012,08,07,12,20,20.10
2012,08,07,12,21,20.20
2012,08,07,12,22,20.20
2012,08,07,12,23,20.20
2012,08,07,12,24,20.20
2012,08,07,12,25,20.20
2012,08,07,12,26,20.20
2012,08,07,12,27,20.30
2012,08,07,12,28,20.30
2012,08,07,12,29,20.40
2012,08,07,12,30,20.40
2012,08,07,12,31,20.40
2012,08,07,12,32,20.40
2012,08,07,12,33,20.40
2012,08,07,12,34,20.40
2012,08,07,12,35,20.40
2012,08,07,12,36,20.40
2012,08,07,12,37,20.50
2012,08,07,12,38,20.50
2012,08,07,12,39,20.50
2012,08,07,12,40,20.60
2012,08,07,12,41,20.60
2012,08,07,12,42,20.70
2012,08,07,12,43,20.70
2012,08,07,12,44,20.70
2012,08,07,12,45,20.70
2012,08,07,12,46,20.70
2012,08,07,12,47,20.80
2012,08,07,12,48,20.80
2012,08,07,12,49,20.80
2012,08,07,12,50,20.90
2012,08,07,12,51,20.90
2012,08,07,12,52,20.90
2012,08,07,12,53,20.90
2012,08,07,12,54,20.90
2012,08,07,12,55,20.90
2012,08,07,12,56,21.00
2012,08,07,12,57,21.10
2012,08,07,12,58,21.20
2012,08,07,12,59,21.30
2012,08,07,13,00,21.30
2012,08,07,13,01,21.40
2012,08,07,13,02,21.40
2012,08,07,13,03,21.50
2012,08,07,13,04,21.60
2012,08,07,13,05,21.60
2012,08,07,13,06,21.70
2012,08,07,13,07,21.70
2012,08,07,13,08,21.70
2012,08,07,13,09,21.70
2012,08,07,13,10,21.60
2012,08,07,13,11,21.60
2012,08,07,13,12,21.50
2012,08,07,13,13,21.40
2012,08,07,13,14,21.30
2012,08,07,13,15,21.30
2012,08,07,13,16,21.20
2012,08,07,13,17,21.20
2012,08,07,13,18,21.20
2012,08,07,13,19,21.10
2012,08,07,13,20,21.10
2012,08,07,13,21,21.10
2012,08,07,13,22,21.10
2012,08,07,13,23,21.10
2012,08,07,13,24,21.00
2012,08,07,13,25,21.00
2012,08,07,13,26,21.00
2012,08,07,13,27,21.00
2012,08,07,13,28,20.90
2012,08,07,13,29,20.90
2012,08,07,13,30,20.90
2012,08,07,13,31,20.90
2012,08,07,13,32,20.90
2012,08,07,13,33,20.90
2012,08,07,13,34,21.00
2012,08,07,13,35,21.00
2012,08,07,13,36,21.00
2012,08,07,13,37,21.00
2012,08,07,13,38,21.10
2012,08,07,13,39,21.10
2012,08,07,13,40,21.10
2012,08,07,13,41,21.20
2012,08,07,13,42,21.20
2012,08,07,13,43,21.20
2012,08,07,13,44,21.20
2012,08,07,13,45,21.20
2012,08,07,13,46,21.20
2012,08,07,13,47,21.20
2012,08,07,13,48,21.20
2012,08,07,13,49,21.20
2012,08,07,13,50,21.20
2012,08,07,13,51,21.20
2012,08,07,13,52,21.20
2012,08,07,13,53,21.20
2012,08,07,13,54,21.20
2012,08,07,13,55,21.30
2012,08,07,13,56,21.30
2012,08,07,13,57,21.30
2012,08,07,13,58,21.30
2012,08,07,13,59,21.30
2012,08,07,14,00,21.40
2012,08,07,14,01,21.40
2012,08,07,14,02,21.50
2012,08,07,14,03,21.50
2012,08,07,14,04,21.60
2012,08,07,14,05,21.70
2012,08,07,14,06,21.80
2012,08,07,14,07,21.80
2012,08,07,14,08,21.80
2012,08,07,14,09,21.80
2012,08,07,14,10,21.80
2012,08,07,14,11,21.70
2012,08,07,14,12,21.70
2012,08,07,14,13,21.80
2012,08,07,14,14,21.80
2012,08,07,14,15,21.80
2012,08,07,14,16,21.80
2012,08,07,14,17,21.90
2012,08,07,14,18,21.90
2012,08,07,14,19,21.80
2012,08,07,14,20,21.80
2012,08,07,14,21,21.80
2012,08,07,14,22,21.70
2012,08,07,14,23,21.60
2012,08,07,14,24,21.60
2012,08,07,14,25,21.60
2012,08,07,14,26,21.60
2012,08,07,14,27,21.60
2012,08,07,14,28,21.60
2012,08,07,14,29,21.60
2012,08,07,14,30,21.60
2012,08,07,14,31,21.60
2012,08,07,14,32,21.60
2012,08,07,14,33,21.60
2012,08,07,14,34,21.60
2012,08,07,14,35,21.70
2012,08,07,14,36,21.70
2012,08,07,14,37,21.70
2012,08,07,14,38,21.80
2012,08,07,14,39,21.80
2012,08,07,14,40,21.80
2012,08,07,14,41,21.80
2012,08,07,14,42,21.70
2012,08,07,14,43,21.70
2012,08,07,14,44,21.70
2012,08,07,14,45,21.70
2012,08,07,14,46,21.70
2012,08,07,14,47,21.70
2012,08,07,14,48,21.70
2012,08,07,14,49,21.70
2012,08,07,14,50,21.70
2012,08,07,14,51,21.80
2012,08,07,14,52,21.80
2012,08,07,14,53,21.70
2012,08,07,14,54,21.70
2012,08,07,14,55,21.70
2012,08,07,14,56,21.70
2012,08,07,14,57,21.60
2012,08,07,14,58,21.60
2012,08,07,14,59,21.60
2012,08,07,15,00,21.60
2012,08,07,15,01,21.50
2012,08,07,15,02,21.50
2012,08,07,15,03,21.60
2012,08,07,15,04,21.60
2012,08,07,15,05,21.60
2012,08,07,15,06,21.60
2012,08,07,15,07,21.60
2012,08,07,15,08,21.70
2012,08,07,15,09,21.70
2012,08,07,15,10,21.80
2012,08,07,15,11,21.80
2012,08,07,15,12,21.90
2012,08,07,15,13,21.90
2012,08,07,15,14,22.00
2012,08,07,15,15,22.00
2012,08,07,15,16,22.00
2012,08,07,15,17,22.00
2012,08,07,15,18,22.00
2012,08,07,15,19,22.00
2012,08,07,15,20,22.10
2012,08,07,15,21,22.10
2012,08,07,15,22,22.10
2012,08,07,15,23,22.10
2012,08,07,15,24,22.10
2012,08,07,15,25,22.10
2012,08,07,15,26,22.10
2012,08,07,15,27,22.00
2012,08,07,15,28,22.00
2012,08,07,15,29,22.00
2012,08,07,15,30,22.00
2012,08,07,15,31,22.00
2012,08,07,15,32,21.90
2012,08,07,15,33,21.90
2012,08,07,15,34,21.90
2012,08,07,15,35,21.90
2012,08,07,15,36,21.90
2012,08,07,15,37,21.90
2012,08,07,15,38,21.90
2012,08,07,15,39,21.90
2012,08,07,15,40,22.00
2012,08,07,15,41,22.00
2012,08,07,15,42,22.00
2012,08,07,15,43,22.00
2012,08,07,15,44,22.00
2012,08,07,15,45,22.00
2012,08,07,15,46,22.00
2012,08,07,15,47,22.00
2012,08,07,15,48,22.10
2012,08,07,15,49,22.10
2012,08,07,15,50,22.10
2012,08,07,15,51,22.20
2012,08,07,15,52,22.20
2012,08,07,15,53,22.20
2012,08,07,15,54,22.20
2012,08,07,15,55,22.20
2012,08,07,15,56,22.30
2012,08,07,15,57,22.30
2012,08,07,15,58,22.30
2012,08,07,15,59,22.30
2012,08,07,16,00,22.30
2012,08,07,16,01,22.30
2012,08,07,16,02,22.30
2012,08,07,16,03,22.20
2012,08,07,16,04,22.20
2012,08,07,16,05,22.20
2012,08,07,16,06,22.20
2012,08,07,16,07,22.20
2012,08,07,16,08,22.20
2012,08,07,16,09,22.20
2012,08,07,16,10,22.20
2012,08,07,16,11,22.10
2012,08,07,16,12,22.10
2012,08,07,16,13,22.10
2012,08,07,16,14,22.00
2012,08,07,16,15,21.90
2012,08,07,16,16,21.90
2012,08,07,16,17,21.80
2012,08,07,16,18,21.80
2012,08,07,16,19,21.80
2012,08,07,16,20,21.80
2012,08,07,16,21,21.80
2012,08,07,16,22,21.80
2012,08,07,16,23,21.70
2012,08,07,16,24,21.70
2012,08,07,16,25,21.70
2012,08,07,16,26,21.60
2012,08,07,16,27,21.60
2012,08,07,16,28,21.60
2012,08,07,16,29,21.60
2012,08,07,16,30,21.50
2012,08,07,16,31,21.50
2012,08,07,16,32,21.50
2012,08,07,16,33,21.50
2012,08,07,16,34,21.50
2012,08,07,16,35,21.50
2012,08,07,16,36,21.60
2012,08,07,16,37,21.60
2012,08,07,16,38,21.60
2012,08,07,16,39,21.60
2012,08,07,16,40,21.60
2012,08,07,16,41,21.60
2012,08,07,16,42,21.70
2012,08,07,16,43,21.70
2012,08,07,16,44,21.70
2012,08,07,16,45,21.80
2012,08,07,16,46,21.90
2012,08,07,16,47,21.90
2012,08,07,16,48,22.00
2012,08,07,16,49,22.10
2012,08,07,16,50,22.00
2012,08,07,16,51,22.00
2012,08,07,16,52,22.00
2012,08,07,16,53,22.00
2012,08,07,16,54,22.00
2012,08,07,16,55,22.00
2012,08,07,16,56,22.00
2012,08,07,16,57,22.00
2012,08,07,16,58,22.10
2012,08,07,16,59,22.10
2012,08,07,17,00,22.20
2012,08,07,17,01,22.20
2012,08,07,17,02,22.20
2012,08,07,17,03,22.20
2012,08,07,17,04,22.20
2012,08,07,17,05,22.20
2012,08,07,17,06,22.10
2012,08,07,17,07,22.10
2012,08,07,17,08,22.10
2012,08,07,17,09,22.10
2012,08,07,17,10,22.20
2012,08,07,17,11,22.20
2012,08,07,17,12,22.20
2012,08,07,17,13,22.20
2012,08,07,17,14,22.20
2012,08,07,17,15,22.20
2012,08,07,17,16,22.20
2012,08,07,17,17,22.20
2012,08,07,17,18,22.20
2012,08,07,17,19,22.20
2012,08,07,17,20,22.20
2012,08,07,17,21,22.20
2012,08,07,17,22,22.10
2012,08,07,17,23,22.10
2012,08,07,17,24,22.20
2012,08,07,17,25,22.20
2012,08,07,17,26,22.10
2012,08,07,17,27,22.10
2012,08,07,17,28,22.10
2012,08,07,17,29,22.10
2012,08,07,17,30,22.10
2012,08,07,17,31,22.00
2012,08,07,17,32,22.00
2012,08,07,17,33,22.00
2012,08,07,17,34,22.00
2012,08,07,17,35,21.90
2012,08,07,17,36,21.90
2012,08,07,17,37,21.80
2012,08,07,17,38,21.80
2012,08,07,17,39,21.70
2012,08,07,17,40,21.70
2012,08,07,17,41,21.60
2012,08,07,17,42,21.60
2012,08,07,17,43,21.60
2012,08,07,17,44,21.60
2012,08,07,17,45,21.60
2012,08,07,17,46,21.60
2012,08,07,17,47,21.60
2012,08,07,17,48,21.60
2012,08,07,17,49,21.60
2012,08,07,17,50,21.70
2012,08,07,17,51,21.70
2012,08,07,17,52,21.70
2012,08,07,17,53,21.70
2012,08,07,17,54,21.70
2012,08,07,17,55,21.80
2012,08,07,17,56,21.80
2012,08,07,17,57,21.80
2012,08,07,17,58,21.80
2012,08,07,17,59,21.80
2012,08,07,18,00,21.80
2012,08,07,18,01,21.80
2012,08,07,18,02,21.80
2012,08,07,18,03,21.80
2012,08,07,18,04,21.80
2012,08,07,18,05,21.80
2012,08,07,18,06,21.80
2012,08,07,18,07,21.80
2012,08,07,18,08,21.80
2012,08,07,18,09,21.80
2012,08,07,18,10,21.80
2012,08,07,18,11,21.80
